Preview of NWS' New Version of Forecast
This preview is not operational and should not be used for support decisions.

Regional Weather Roundup (RWR)

Issued by National Weather Service (NWS)

                            
000
ASUS45 KBOU 182010
RWRCO 

WEATHER ROUNDUP FOR COLORADO
NATIONAL WEATHER SERVICE DENVER/BOULDER CO
100 PM MST FRI JAN 18 2019

NOTE: "FAIR" INDICATES FEW OR NO CLOUDS BELOW 12000 FEET WITH NO
SIGNIFICANT WEATHER AND/OR OBSTRUCTIONS TO VISIBILITY.

COZ001>005-013-030-031-182100-
...NORTHWEST COLORADO...
  
CITY           SKY/WX    TMP DP  RH WIND       PRES   REMARKS
CRAIG          CLOUDY    30  26  85 W14       30.04R WCI  19          
HAYDEN         FLURRIES  29  26  89 MISG      30.01R                  
MEEKER         LGT SNOW  30  27  88 W5        30.04R VSB 3/4 WCI  25  
RANGELY        CLOUDY    32  27  81 CALM      30.10R                  
RABBIT EARS PA   N/A     16  14  93 W15       29.91R WCI   1          
STEAMBOAT SPGS CLOUDY    28  25  91 SW9       29.97S WCI  19          
WALDEN         CLOUDY    27  21  80 NW17      29.93S WCI  14          
$$

COZ006>008-011-182100-
...WEST CENTRAL VALLEYS...
  
CITY           SKY/WX    TMP DP  RH WIND       PRES   REMARKS
GRAND JUNCTION FAIR      39  28  64 NW12      30.07S                  
MONTROSE       CLOUDY    35  26  69 NW21      30.05R WCI  24          
EAGLE          CLOUDY    34  22  61 W9        29.98S WCI  27          
RIFLE          CLOUDY    36  26  67 W8G18     30.03R                  
DELTA          FAIR      39  27  60 W18G30    30.02S                  
NUCLA          PTSUNNY   37  25  60 NW16      30.08S                  
$$

COZ017>023-064>068-182100-
...SOUTHWEST COLORADO...
  
CITY           SKY/WX    TMP DP  RH WIND       PRES   REMARKS
DURANGO        FAIR      33  33 100 W18       29.93S WCI  22          
CORTEZ         FAIR      37  24  59 NW17G30   30.04F                  
PAGOSA SPRINGS FAIR      36  26  66 SW7       29.88F                  
TELLURIDE      LGT SNOW  25  19  80 W18G25    29.99F VSB 1   WCI  11  
WOLF CREEK PAS FAIR      14   9  79 NW3       29.92F                  
$$

COZ009-010-012-014-032>034-037-058>063-182100-
...CENTRAL COLORADO...
  
CITY           SKY/WX    TMP DP  RH WIND       PRES   REMARKS
ASPEN          LGT SNOW  27  22  81 N12G21    29.94S VSB 1   WCI  17  
BUENA VISTA    PTSUNNY   33  16  51 W6        29.84S WCI  27          
COPPER MTN     CLOUDY    18  12  79 NW18G35   29.88R WCI   2          
BERTHOUD PASS  CLOUDY     9  -2  61 N22G35    29.83R WCI -11          
COTTONWOOD PAS LGT SNOW  28  14  54 W21G31    29.85R WCI  15          
GUNNISON       FLURRIES  26  23  88 SW9       29.93F WCI  17          
GRANBY         CLOUDY    26  19  73 W15       29.92R WCI  14          
KREMMLING      CLOUDY    32  23  69 W6        29.94S WCI  26          
LEADVILLE      PTSUNNY   22  15  75 NW16G23   29.86S WCI   8          
MONARCH PASS   CLOUDY    14  10  85 W25G31    29.94S WCI  -5          
SALIDA         CLOUDY    39  20  45 NW3       29.91S                  
SUNLIGHT       SNOW     N/A N/A N/A MISG      29.98S VSB 1/4          
WILKERSON PASS CLOUDY    18  10  73 N15G28    29.84F WCI   3          
$$

COZ069>075-182100-
...SAN LUIS VALLEY/SANGRE DE CRISTO MOUNTAINS...
  
CITY           SKY/WX    TMP DP  RH WIND       PRES   REMARKS
ALAMOSA        FAIR      34  17  50 N14       29.83R WCI  25          
DEL NORTE      PTSUNNY   34  13  41 NW17G30   29.86S WCI  23          
LA VETA PASS   NOT AVBL                                               
SAGUACHE       FAIR      32  19  59 NW18G25   29.84F WCI  20          
$$

COZ035-036-038>040-182100-
...NORTHERN COLORADO FRONT RANGE...
  
CITY           SKY/WX    TMP DP  RH WIND       PRES   REMARKS
DENVER INTL AP SNOW      33  32  96 NW21G30   29.88R VSB 1/4 WCI  21  
AURORA         LGT SNOW  32  32 100 N22G28    29.88R FOG     WCI  20  
FRONT RANGE AP NOT AVBL                                               
ERIE MUNI ARPT CLOUDY    34  33  95 N15       29.97S WCI  24          
BOULDER MUN AP LGT SNOW  34  34 100 N12       29.91R WCI  25          
CENTENNIAL     SNOW      31  31 100 N24G31    29.88R VSB 1/2 WCI  17  
BROOMFIELD     NOT AVBL                                               
FORT COLLINS   LGT RAIN  37  31  78 N26G35    29.92S                  
LONGMONT       MIX PCPN  37  33  87 N12       29.94R                  
$$

COZ041-046-047-076>085-087-088-182100-
...PIKES PEAK/PALMER DIVIDE AND SOUTHERN FOOTHILLS...
  
CITY           SKY/WX    TMP DP  RH WIND       PRES   REMARKS
COLO. SPRINGS  LGT SNOW  35  33  92 N28G38    29.80S FOG     WCI  22  
A. F. ACADEMY  LGT SNOW  32  30  93 N23G31    29.81R VSB 1   WCI  19  
SCHRIEVER AFB  NOT AVBL                                               
CHEYENNE MTN   PTSUNNY   32  28  85 N12G21    29.74R WCI  23          
ELLICOTT         N/A    N/A N/A N/A N25G32    29.76S                  
FALCON         LGT SNOW  32  28  86 N23G33    29.80S WCI  19          
FORT CARSON    PTSUNNY   38  27  63 N23G32    29.78R                  
LIMON          CLOUDY    36  28  73 N28G39    29.78R                  
MONUMENT HILL  SNOW      30  28  93 NW26G32   29.84S VSB 1/4 WCI  16  
CANON CITY     CLOUDY    43  32  65 SE5       29.79R                  
WALSENBURG     NOT AVBL                                               
TRINIDAD       HVY SNOW  33  32  96 N14       29.78R VSB 1/4 WCI  23  
$$

COZ042>045-048>051-090-091-182100-
...NORTHEAST COLORADO...
  
CITY           SKY/WX    TMP DP  RH WIND       PRES   REMARKS
GREELEY ARPT   PTSUNNY   40  25  55 N24G33    29.92R                  
AKRON          CLOUDY    30  25  81 N31G40    29.83R WCI  15          
BURLINGTON     FOG       29  28  96 N13       29.78R VSB 1/4 WCI  19  
WRAY           CLOUDY    32  32 100 N26       29.83R WCI  18          
YUMA           MIX PCPN  30  27  86 N20G30    29.83R WCI  18          
STERLING       CLOUDY    32  27  80 N17G23    29.88R WCI  21          
HOLYOKE        CLOUDY    32  28  86 N24G33    29.85R WCI  19          
FORT MORGAN      N/A     35  27  71 N25G31    29.87R WCI  22          
$$

COZ086-089-092>099-182100-
...SOUTHEAST COLORADO...
  
CITY           SKY/WX    TMP DP  RH WIND       PRES   REMARKS
PUEBLO         CLOUDY    41  35  79 NW5       29.81R                  
LA JUNTA       LGT RAIN  40  34  79 N22G30    29.78R                  
LAMAR          CLOUDY    45  29  53 N21G30    29.70R                  
SPRINGFIELD      N/A     48  32  53 N29G44    29.65F                  
$$